746  
AXUS43 KGID 252302  
MISGRI  
 
GID CWA HOURLY WEATHER ROUNDUP  
NATIONAL WEATHER SERVICE HASTINGS NE  
600 PM CDT MON MAY 25 2015  
 
NOTE: "FAIR" INDICATES FEW OR NO CLOUDS BELOW 12,000 FEET WITH NO  
SIGNIFICANT WEATHER AND/OR OBSTRUCTIONS TO VISIBILITY.  
   
..SOUTH CENTRAL NEBRASKA
 
 
 
CITY SKY/WX TMP DP RH WIND PRES REMARKS  
GRAND ISLAND MOSUNNY 76 56 49 VRB5 29.73F  
HASTINGS MOSUNNY 74 54 49 VRB3 29.74F  
KEARNEY MOSUNNY 75 50 41 W12 29.74F  
ORD SUNNY 72 53 51 W3 29.71F  
YORK MOSUNNY 75 57 53 W9 29.74F  
AURORA MOSUNNY 76 55 46 SW9 29.74F  
LEXINGTON SUNNY 74 53 48 SW10 29.74F  
HOLDREGE SUNNY 75 49 40 W16 29.74F  
HEBRON MOSUNNY 79 56 45 S12G17 29.76R  
   
..NEBRASKA PANHANDLE
 
 
 
CITY SKY/WX TMP DP RH WIND PRES REMARKS  
CHADRON CLOUDY 61 52 72 N8 29.86R  
ALLIANCE CLOUDY 56 52 86 W5 29.87S  
SCOTTSBLUFF CLOUDY 56 52 86 SW5 29.89S  
SIDNEY CLOUDY 53 49 86 N12 29.90S  
   
..WESTERN AND NORTH CENTRAL NEBRASKA
 
 
 
CITY SKY/WX TMP DP RH WIND PRES REMARKS  
VALENTINE CLOUDY 57 53 86 NW9 29.82S  
AINSWORTH PTSUNNY 60 56 86 NW10 29.80F  
ONEILL MOSUNNY 67 60 77 N12 29.78S  
BROKEN BOW SUNNY 72 54 53 W12 29.75F  
IMPERIAL MOSUNNY 62 49 62 NW15G22 29.82S  
NORTH PLATTE PTSUNNY 67 50 54 W13 29.78F  
MCCOOK SUNNY 71 50 47 W17G25 29.77F  
   
..EASTERN NEBRASKA
 
 
 
CITY SKY/WX TMP DP RH WIND PRES REMARKS  
NORFOLK SUNNY 76 55 48 SW9 29.72F  
SO SIOUX CITY MOSUNNY 80 55 42 SW14 29.73F  
TEKAMAH MOSUNNY 80 57 45 S13 29.72F  
COLUMBUS PTSUNNY N/A N/A N/A MISG N/A  
ALBION MOSUNNY 77 51 40 SW13 29.74F  
OMAHA EPPLEY PTSUNNY 80 60 50 S16 29.73F  
OFFUTT AFB MOSUNNY 80 62 54 S13 29.73F  
MILLARD PTSUNNY 79 61 54 S8 29.72F  
LINCOLN MOSUNNY 79 61 53 SW12 29.74F  
NEBRASKA CITY PTSUNNY 75 61 60 S13 29.76F  
BEATRICE PTSUNNY 75 61 60 SW10 29.75S  
FALLS CITY TSTM 69 60 73 SW17 29.80R  
   
..NORTHERN KANSAS
 
 
 
CITY SKY/WX TMP DP RH WIND PRES REMARKS  
GOODLAND SUNNY 69 47 45 NW17 29.84F  
HILL CITY MOSUNNY 76 52 43 W8 29.77S  
NORTON CLEAR 75 43 31 W12G21 29.76S  
PHILLIPSBURG MOSUNNY 79 55 44 W8 29.76R  
SMITH CENTER SUNNY 75 57 53 S3 29.78R  
HAYS CLOUDY 73 57 56 S10 29.78R  
RUSSELL CLOUDY 74 60 61 W9 29.77R  
CONCORDIA PTSUNNY 67 54 63 S22G39 29.79R  
SALINA LGT RAIN 64 54 69 SW16 29.79R  
TOPEKA CLOUDY 79 66 64 S15G23 29.79R  
 
CLICK HERE TO GO TO PREVIOUS BULLETINS.

The Nexlab NE Page
The Nexlab KS Page Main Text Page